{"data":{"norad_id":51898,"epoch":"2026-05-25T00:49:22.344096Z","epoch_age_seconds":72814,"freshness":"FRESH","line1":"1 51898U 22022AY  26145.03428639  .00000078  00000+0  22991-4 0  9993","line2":"2 51898  53.2136  16.3977 0001307  78.5188 281.5951 15.08843032234828","mean_motion":15.08843032,"eccentricity":0.0001307,"inclination_deg":53.2136,"raan_deg":16.3977,"arg_perigee_deg":78.5188,"mean_anomaly_deg":281.5951,"bstar":2.2991e-5,"rev_number":23482,"period_min":95.437362897269,"perigee_km":538.82995561303,"apogee_km":540.63828712416,"semimajor_km":6917.8711213686,"source":"CELESTRAK","updated_at":"2026-05-25T13:38:16.990279Z"}}